TimePST,TemperatureF,Dew PointF,Humidity,Sea Level PressureIn,VisibilityMPH,Wind Direction,Wind SpeedMPH,Gust SpeedMPH,PrecipitationIn,Events,Conditions,WindDirDegrees,DateUTC
12:15 AM,60.8,60.8,100,29.99,10.0,South,13.8,-,N/A,,Overcast,170,2012-12-02 08:15:00
12:35 AM,60.8,60.8,100,29.99,10.0,South,12.7,-,N/A,,Overcast,170,2012-12-02 08:35:00
12:55 AM,60.8,60.8,100,29.99,10.0,South,13.8,19.6,N/A,,Overcast,170,2012-12-02 08:55:00
1:15 AM,60.8,60.8,100,29.97,9.0,SSE,18.4,23.0,N/A,,Overcast,160,2012-12-02 09:15:00
1:35 AM,60.8,60.8,100,29.97,10.0,South,17.3,23.0,N/A,,Overcast,170,2012-12-02 09:35:00
1:55 AM,60.8,60.8,100,29.98,10.0,SSE,16.1,19.6,N/A,,Overcast,160,2012-12-02 09:55:00
2:15 AM,60.8,60.8,100,29.97,10.0,SSE,17.3,20.7,N/A,,Overcast,160,2012-12-02 10:15:00
2:35 AM,60.8,60.8,100,29.97,10.0,South,18.4,24.2,N/A,,Overcast,170,2012-12-02 10:35:00
2:55 AM,60.8,60.8,100,29.96,10.0,South,19.6,23.0,N/A,,Overcast,170,2012-12-02 10:55:00
3:15 AM,60.8,60.8,100,29.95,10.0,SSE,17.3,26.5,N/A,,Overcast,160,2012-12-02 11:15:00
3:35 AM,60.8,60.8,100,29.95,10.0,South,21.9,28.8,N/A,,Overcast,170,2012-12-02 11:35:00
3:55 AM,60.8,60.8,100,29.94,10.0,South,20.7,28.8,N/A,,Overcast,170,2012-12-02 11:55:00
4:15 AM,60.8,60.8,100,29.93,10.0,South,20.7,28.8,N/A,,Overcast,170,2012-12-02 12:15:00
4:35 AM,60.8,60.8,100,29.93,10.0,South,19.6,25.3,N/A,,Overcast,170,2012-12-02 12:35:00
4:55 AM,60.8,60.8,100,29.93,10.0,South,20.7,29.9,N/A,,Overcast,180,2012-12-02 12:55:00
5:15 AM,60.8,60.8,100,29.91,10.0,South,23.0,29.9,N/A,,Mostly Cloudy,170,2012-12-02 13:15:00
5:35 AM,60.8,60.8,100,29.91,10.0,South,21.9,28.8,N/A,,Mostly Cloudy,170,2012-12-02 13:35:00
5:55 AM,60.8,60.8,100,29.91,10.0,South,19.6,28.8,N/A,,Overcast,180,2012-12-02 13:55:00
6:45 AM,62.6,62.6,100,29.92,10.0,SSE,23.0,27.6,N/A,,Overcast,160,2012-12-02 14:45:00
7:45 AM,60.8,60.8,100,29.90,10.0,SSE,25.3,29.9,N/A,,Overcast,160,2012-12-02 15:45:00
8:45 AM,62.6,62.6,100,29.92,10.0,South,25.3,32.2,N/A,Rain,Light Rain,170,2012-12-02 16:45:00
9:45 AM,60.8,60.8,100,29.92,7.0,SSE,24.2,34.5,N/A,Rain,Rain,160,2012-12-02 17:45:00
10:45 AM,60.8,60.8,100,29.91,7.0,South,27.6,32.2,N/A,Rain,Rain,170,2012-12-02 18:45:00
11:45 AM,60.8,60.8,100,29.91,3.0,South,20.7,28.8,N/A,Rain,Rain,180,2012-12-02 19:45:00
12:45 PM,60.8,60.8,100,29.93,2.0,WNW,9.2,-,N/A,Rain,Rain,290,2012-12-02 20:45:00
1:45 PM,57.2,57.2,100,29.95,1.5,North,17.3,-,N/A,Rain,Rain,360,2012-12-02 21:45:00
2:45 PM,57.2,57.2,100,29.97,7.0,North,9.2,-,N/A,,Overcast,360,2012-12-02 22:45:00
3:47 PM,57.2,57.2,100,30.00,7.0,NNE,6.9,-,N/A,,Overcast,30,2012-12-02 23:47:00
4:47 PM,57.2,57.2,100,30.02,10.0,NE,5.8,-,N/A,,Mostly Cloudy,40,2012-12-03 00:47:00
5:45 PM,55.4,55.4,100,30.01,10.0,Calm,Calm,-,N/A,,Scattered Clouds,0,2012-12-03 01:45:00
6:45 PM,53.6,53.6,100,30.02,10.0,Calm,Calm,-,N/A,,Overcast,0,2012-12-03 02:45:00
7:45 PM,55.4,55.4,100,30.03,10.0,WNW,5.8,-,N/A,,Scattered Clouds,290,2012-12-03 03:45:00
8:15 PM,55.4,55.4,100,30.04,9.0,Calm,Calm,-,N/A,,Overcast,0,2012-12-03 04:15:00
8:35 PM,55.4,55.4,100,30.06,5.0,North,5.8,-,N/A,,Overcast,350,2012-12-03 04:35:00
8:45 PM,55.4,55.4,100,30.05,7.0,Calm,Calm,-,N/A,,Overcast,0,2012-12-03 04:45:00
8:55 PM,55.4,55.4,100,30.06,5.0,Calm,Calm,-,N/A,,Overcast,0,2012-12-03 04:55:00
9:15 PM,55.4,55.4,100,30.04,5.0,North,-9999.0,-,N/A,,Overcast,0,2012-12-03 05:15:00
9:35 PM,53.6,53.6,100,30.05,7.0,North,-9999.0,-,N/A,,Mostly Cloudy,0,2012-12-03 05:35:00
9:55 PM,53.6,53.6,100,30.06,9.0,North,-9999.0,-,N/A,,Mostly Cloudy,0,2012-12-03 05:55:00
10:15 PM,53.6,53.6,100,30.08,10.0,North,-9999.0,-,N/A,,Scattered Clouds,0,2012-12-03 06:15:00
10:35 PM,53.6,53.6,100,30.08,10.0,North,-9999.0,-,N/A,,Scattered Clouds,0,2012-12-03 06:35:00
10:55 PM,53.6,53.6,100,30.10,10.0,North,6.9,-,N/A,,Mostly Cloudy,360,2012-12-03 06:55:00
11:15 PM,53.6,53.6,100,30.09,10.0,North,-9999.0,-,N/A,,Overcast,0,2012-12-03 07:15:00
11:35 PM,53.6,53.6,100,30.10,10.0,North,8.1,-,N/A,,Overcast,10,2012-12-03 07:35:00
11:55 PM,53.6,53.6,100,30.10,10.0,North,-9999.0,-,N/A,,Overcast,0,2012-12-03 07:55:00